Home   Weather   Baku   Past weeks
Flag for Azerbaijan

Past Weather in Baku, Azerbaijan — Yesterday and Last 2 Weeks

Now
50 °F

More clouds than sun.


Feels Like: 43 °F
Forecast: 64 / 45 °F
Wind: 21 mph from Northwest

Location: Baku / Bine Airport

Current Time: Apr 23, 2019 at 10:21:27 am

Latest Report: Apr 23, 2019 at 10:00 am


Visibility: N/A

Pressure: 30.24 "Hg

Humidity: 82%

Dew Point: 45 °F

Location of BakuLocation

Past Weather in Baku — Graph

°F

Baku Temperature Yesterday

Maximum temperature yesterday: 54 °F (at 12:00 pm)
Minimum temperature yesterday: 39 °F (at 3:00 am)
Average temperature yesterday: 48 °F

High & Low Weather Summary for the Past Weeks

 TemperatureHumidityPressure
High70 °F (Apr 13, 3:30 pm)100% (Apr 8, 9:30 am)30.21 "Hg (Apr 8, 9:30 am)
Low39 °F (Apr 22, 3:00 am)46% (Apr 13, 4:00 pm)29.65 "Hg (Apr 17, 12:00 pm)
Average53 °F82%29.96 "Hg
* Reported Apr 8 9:00 am — Apr 23 9:00 am, Baku. Weather by CustomWeather, © 2019

Note: Actual official high and low records may vary slightly from our data, if they occured in-between our weather recording intervals... More about our weather records

Advertising

Baku Weather History for the Previous 24 Hours

Scroll right to see more
 ConditionsComfort  
Time TempWeatherWind HumidityBarometerVisibility
9:00 am
Tue, Apr 23
50 °FLight rain. More clouds than sun.21 mph76%30.21 "HgN/A
8:30 am50 °FMore clouds than sun.16 mph76%30.21 "HgN/A
8:00 am48 °FMore clouds than sun.18 mph82%30.21 "HgN/A
7:30 am48 °FCloudy.17 mph82%30.18 "HgN/A
7:00 am48 °FCloudy.16 mph76%30.18 "HgN/A
6:30 am48 °FSprinkles. Cloudy.15 mph82%30.18 "HgN/A
6:00 am46 °FSprinkles. More clouds than sun.14 mph87%30.18 "HgN/A
5:30 am48 °FSprinkles. Mostly cloudy.18 mph82%30.15 "HgN/A
5:00 am48 °FSprinkles. Mostly cloudy.17 mph76%30.15 "HgN/A
4:30 am48 °FSprinkles. Mostly cloudy.18 mph76%30.15 "HgN/A
4:00 am48 °FSprinkles. Mostly cloudy.17 mph76%30.15 "HgN/A
3:30 am48 °FSprinkles. Mostly cloudy.16 mph76%30.15 "HgN/A
3:00 am48 °FSprinkles. Mostly cloudy.18 mph82%30.15 "HgN/A
2:30 am48 °FSprinkles. Mostly cloudy.16 mph82%30.15 "HgN/A
2:00 am48 °FSprinkles. Mostly cloudy.17 mph87%30.15 "HgN/A
1:30 am48 °FSprinkles. Mostly cloudy.20 mph87%30.15 "HgN/A
1:00 am48 °FSprinkles. Mostly cloudy.17 mph87%30.15 "HgN/A
12:30 am46 °FSprinkles. Mostly cloudy.17 mph93%30.15 "HgN/A
12:00 am46 °FSprinkles. Mostly cloudy.17 mph93%30.15 "HgN/A
11:30 pm
Mon, Apr 22
46 °FSprinkles. Mostly cloudy.17 mph87%30.15 "HgN/A
11:00 pm46 °FSprinkles. Mostly cloudy.15 mph87%30.15 "HgN/A
10:30 pm48 °FSprinkles. Mostly cloudy.17 mph76%30.15 "HgN/A
10:00 pm48 °FOvercast.17 mph66%30.15 "HgN/A
9:30 pm48 °FOvercast.17 mph71%30.15 "HgN/A
9:00 pm48 °FOvercast.16 mph76%30.15 "HgN/A
8:30 pm48 °FSprinkles. Overcast.17 mph76%30.15 "HgN/A
8:00 pm48 °FClear.17 mph76%30.15 "Hg10 mi
7:30 pm48 °FClear.17 mph76%30.12 "Hg10 mi
7:00 pm48 °FSunny.17 mph76%30.12 "Hg10 mi
6:30 pm48 °FSunny.20 mph82%30.12 "Hg10 mi
6:00 pm50 °FSunny.17 mph76%30.12 "Hg10 mi
5:30 pm50 °FOvercast.18 mph76%30.12 "HgN/A
5:00 pm50 °FOvercast.20 mph76%30.09 "HgN/A
4:30 pm50 °FOvercast.22 mph76%30.09 "HgN/A
4:00 pm50 °FOvercast.23 mph76%30.07 "HgN/A
3:30 pm52 °FOvercast.23 mph77%30.07 "HgN/A
3:00 pm52 °FOvercast.22 mph72%30.09 "HgN/A
2:30 pm52 °FOvercast.20 mph72%30.12 "HgN/A
2:00 pm50 °FOvercast.18 mph76%30.12 "HgN/A
1:30 pm50 °FOvercast.20 mph76%30.12 "HgN/A
1:00 pm52 °FPartly sunny.18 mph72%30.12 "HgN/A
12:30 pm52 °FBroken clouds.18 mph72%30.12 "HgN/A
12:00 pm54 °FBroken clouds.20 mph72%30.12 "HgN/A
11:30 am52 °FPartly sunny.18 mph77%30.12 "HgN/A
11:00 am52 °FPartly sunny.17 mph77%30.12 "HgN/A
10:00 am50 °FMore clouds than sun.14 mph88%30.15 "HgN/A
Weather by CustomWeather, © 2019

See weather overview